• Em Portugal
  • Lista de países
  • Para 7 dias
  • Temperatura da água
  • Mapas de satélite
  • Mapa do tempo
  • Widgets de tempo
  • user-avatar
    Iniciar Sessão

    Previsão horária em Cierniki

    Hoje, 20 Agosto, Segunda-feira

    Tempo Temperatura Precipitação Vento Pressão Humidade
    00:00 +19°C° 0 mm 2 m/s 748 mmHg 67%
    01:00 +19°C° 0 mm 2 m/s 748 mmHg 64%
    02:00 +19°C° 0 mm 2 m/s 747 mmHg 63%
    03:00 +19°C° 0 mm 2 m/s 747 mmHg 62%
    04:00 +19°C° 0 mm 2 m/s 747 mmHg 60%
    05:00 +20°C° 0 mm 3 m/s 747 mmHg 60%
    06:00 +20°C° 0 mm 3 m/s 747 mmHg 60%
    07:00 +21°C° 0 mm 4 m/s 747 mmHg 60%
    08:00 +23°C° 0 mm 4 m/s 747 mmHg 58%
    09:00 +25°C° 0 mm 4 m/s 747 mmHg 57%
    10:00 +26°C° 0 mm 5 m/s 747 mmHg 55%
    11:00 +26°C° 0,1 mm 5 m/s 747 mmHg 58%
    12:00 +25°C° 0,1 mm 5 m/s 747 mmHg 61%
    13:00 +25°C° 0,1 mm 5 m/s 747 mmHg 64%
    14:00 +23°C° 0,1 mm 5 m/s 747 mmHg 66%
    15:00 +23°C° 0,1 mm 5 m/s 747 mmHg 68%
    16:00 +22°C° 0,1 mm 5 m/s 747 mmHg 70%
    17:00 +21°C° 0 mm 5 m/s 747 mmHg 73%
    18:00 +21°C° 0 mm 4 m/s 747 mmHg 76%
    19:00 +20°C° 0 mm 4 m/s 747 mmHg 78%
    20:00 +19°C° 0 mm 4 m/s 747 mmHg 78%
    21:00 +18°C° 0 mm 4 m/s 747 mmHg 79%
    22:00 +17°C° 0 mm 4 m/s 748 mmHg 79%
    23:00 +17°C° 0 mm 4 m/s 748 mmHg 78%

    Amanhã, 21 Agosto, Terça-feira

    Tempo Temperatura Precipitação Vento Pressão Humidade
    00:00 +16°C° 0 mm 3 m/s 748 mmHg 78%
    01:00 +16°C° 0 mm 3 m/s 748 mmHg 77%
    02:00 +16°C° 0 mm 3 m/s 748 mmHg 79%
    03:00 +14°C° 0 mm 3 m/s 749 mmHg 81%
    04:00 +14°C° 0 mm 3 m/s 749 mmHg 83%
    05:00 +16°C° 0 mm 3 m/s 749 mmHg 79%
    06:00 +17°C° 0 mm 4 m/s 750 mmHg 75%
    07:00 +17°C° 0 mm 4 m/s 750 mmHg 71%
    08:00 +19°C° 0 mm 4 m/s 751 mmHg 65%
    09:00 +20°C° 0 mm 4 m/s 751 mmHg 59%
    10:00 +21°C° 0 mm 4 m/s 751 mmHg 53%
    11:00 +22°C° 0 mm 4 m/s 751 mmHg 50%
    12:00 +22°C° 0 mm 3 m/s 752 mmHg 47%
    13:00 +24°C° 0 mm 3 m/s 752 mmHg 44%
    14:00 +24°C° 0 mm 3 m/s 752 mmHg 45%
    15:00 +24°C° 0 mm 3 m/s 752 mmHg 45%
    16:00 +24°C° 0 mm 3 m/s 752 mmHg 46%
    17:00 +21°C° 0 mm 3 m/s 752 mmHg 53%
    18:00 +19°C° 0 mm 2 m/s 752 mmHg 59%
    19:00 +18°C° 0 mm 2 m/s 752 mmHg 66%
    20:00 +17°C° 0 mm 2 m/s 752 mmHg 70%
    21:00 +16°C° 0 mm 2 m/s 752 mmHg 74%
    22:00 +15°C° 0 mm 1 m/s 752 mmHg 77%
    23:00 +15°C° 0 mm 1 m/s 752 mmHg 80%

    Depois de amanhã, 22 Agosto, Quarta-feira

    Tempo Temperatura Precipitação Vento Pressão Humidade
    00:00 +14°C° 0 mm 2 m/s 752 mmHg 82%
    01:00 +14°C° 0 mm 2 m/s 752 mmHg 84%
    02:00 +14°C° 0 mm 2 m/s 752 mmHg 86%
    03:00 +13°C° 0 mm 2 m/s 752 mmHg 87%
    04:00 +13°C° 0 mm 2 m/s 752 mmHg 89%
    05:00 +14°C° 0 mm 2 m/s 752 mmHg 84%
    06:00 +15°C° 0 mm 2 m/s 752 mmHg 79%
    07:00 +17°C° 0 mm 2 m/s 752 mmHg 73%
    08:00 +19°C° 0 mm 2 m/s 752 mmHg 66%
    09:00 +21°C° 0 mm 2 m/s 752 mmHg 58%
    10:00 +23°C° 0 mm 2 m/s 752 mmHg 51%
    11:00 +25°C° 0 mm 2 m/s 752 mmHg 47%
    12:00 +26°C° 0 mm 2 m/s 752 mmHg 43%
    13:00 +27°C° 0 mm 2 m/s 751 mmHg 38%
    14:00 +27°C° 0 mm 2 m/s 751 mmHg 38%
    15:00 +27°C° 0 mm 2 m/s 751 mmHg 38%
    16:00 +27°C° 0 mm 2 m/s 750 mmHg 38%
    17:00 +25°C° 0 mm 2 m/s 750 mmHg 43%
    18:00 +24°C° 0 mm 2 m/s 750 mmHg 49%
    19:00 +22°C° 0 mm 1 m/s 749 mmHg 55%
    20:00 +20°C° 0 mm 2 m/s 749 mmHg 57%
    21:00 +20°C° 0 mm 2 m/s 749 mmHg 59%
    22:00 +19°C° 0 mm 2 m/s 749 mmHg 61%
    23:00 +19°C° 0 mm 3 m/s 749 mmHg 61%

    23 Agosto, Quinta-feira

    Tempo Temperatura Precipitação Vento Pressão Humidade
    00:00 +19°C° 0 mm 3 m/s 749 mmHg 61%
    01:00 +18°C° 0 mm 3 m/s 748 mmHg 62%
    02:00 +18°C° 0 mm 3 m/s 748 mmHg 63%
    03:00 +18°C° 0 mm 3 m/s 748 mmHg 64%
    04:00 +18°C° 0 mm 3 m/s 747 mmHg 65%
    05:00 +19°C° 0 mm 3 m/s 747 mmHg 63%
    06:00 +20°C° 0 mm 3 m/s 747 mmHg 62%
    07:00 +20°C° 0 mm 3 m/s 747 mmHg 61%
    08:00 +22°C° 0 mm 3 m/s 747 mmHg 57%
    09:00 +25°C° 0 mm 3 m/s 747 mmHg 53%
    10:00 +27°C° 0 mm 4 m/s 747 mmHg 48%
    11:00 +28°C° 0 mm 3 m/s 747 mmHg 48%
    12:00 +28°C° 0 mm 3 m/s 746 mmHg 47%
    13:00 +29°C° 0 mm 3 m/s 746 mmHg 47%
    14:00 +29°C° 0 mm 2 m/s 746 mmHg 47%
    15:00 +29°C° 0 mm 2 m/s 745 mmHg 48%
    16:00 +29°C° 0 mm 2 m/s 745 mmHg 48%
    17:00 +27°C° 0 mm 2 m/s 745 mmHg 53%
    18:00 +26°C° 0 mm 2 m/s 744 mmHg 57%
    19:00 +25°C° 0 mm 1 m/s 744 mmHg 61%
    20:00 +24°C° 0,1 mm 2 m/s 744 mmHg 63%
    21:00 +24°C° 0,1 mm 2 m/s 744 mmHg 65%
    22:00 +23°C° 0,1 mm 2 m/s 744 mmHg 66%
    23:00 +23°C° 0,1 mm 2 m/s 743 mmHg 70%

    24 Agosto, Sexta-feira

    Tempo Temperatura Precipitação Vento Pressão Humidade
    00:00 +21°C° 0,1 mm 2 m/s 743 mmHg 73%
    01:00 +20°C° 0,1 mm 2 m/s 743 mmHg 76%
    02:00 +20°C° 0,1 mm 2 m/s 742 mmHg 78%
    03:00 +19°C° 0,1 mm 2 m/s 742 mmHg 81%
    04:00 +19°C° 0,1 mm 2 m/s 742 mmHg 83%
    05:00 +20°C° 0,1 mm 2 m/s 742 mmHg 81%
    06:00 +21°C° 0,1 mm 2 m/s 742 mmHg 78%
    07:00 +23°C° 0,1 mm 2 m/s 742 mmHg 76%
    08:00 +24°C° 0,2 mm 2 m/s 742 mmHg 72%
    09:00 +25°C° 0,2 mm 3 m/s 742 mmHg 68%
    10:00 +26°C° 0,2 mm 3 m/s 742 mmHg 64%
    11:00 +25°C° 0,7 mm 3 m/s 742 mmHg 66%
    12:00 +25°C° 0,7 mm 3 m/s 742 mmHg 67%
    13:00 +25°C° 0,7 mm 3 m/s 742 mmHg 69%
    14:00 +22°C° 1,3 mm 3 m/s 742 mmHg 71%
    15:00 +21°C° 1,3 mm 3 m/s 742 mmHg 74%
    16:00 +20°C° 1,3 mm 3 m/s 742 mmHg 77%
    17:00 +19°C° 0,4 mm 3 m/s 743 mmHg 78%
    18:00 +19°C° 0,4 mm 2 m/s 743 mmHg 79%
    19:00 +18°C° 0,4 mm 2 m/s 743 mmHg 80%
    20:00 +18°C° 0 mm 2 m/s 743 mmHg 81%
    21:00 +17°C° 0 mm 2 m/s 743 mmHg 82%
    22:00 +17°C° 0 mm 2 m/s 743 mmHg 83%
    23:00 +16°C° 0 mm 2 m/s 743 mmHg 84%

    25 Agosto, Sábado

    Tempo Temperatura Precipitação Vento Pressão Humidade
    00:00 +16°C° 0 mm 2 m/s 744 mmHg 85%
    01:00 +16°C° 0 mm 2 m/s 744 mmHg 87%
    02:00 +15°C° 0 mm 2 m/s 744 mmHg 85%
    03:00 +15°C° 0 mm 2 m/s 744 mmHg 83%
    04:00 +15°C° 0 mm 2 m/s 744 mmHg 82%
    05:00 +15°C° 0,3 mm 2 m/s 744 mmHg 83%
    06:00 +14°C° 0,3 mm 3 m/s 745 mmHg 85%
    07:00 +14°C° 0,3 mm 3 m/s 745 mmHg 86%
    08:00 +14°C° 0,4 mm 3 m/s 745 mmHg 85%
    09:00 +14°C° 0,4 mm 3 m/s 745 mmHg 84%
    10:00 +14°C° 0,4 mm 3 m/s 746 mmHg 83%
    11:00 +14°C° 0,1 mm 3 m/s 746 mmHg 77%
    12:00 +16°C° 0,1 mm 2 m/s 746 mmHg 71%
    13:00 +17°C° 0,1 mm 2 m/s 746 mmHg 65%
    14:00 +18°C° 0 mm 2 m/s 746 mmHg 60%
    15:00 +18°C° 0 mm 2 m/s 746 mmHg 54%
    16:00 +19°C° 0 mm 2 m/s 745 mmHg 49%
    17:00 +19°C° 0 mm 1 m/s 745 mmHg 53%
    18:00 +18°C° 0 mm 1 m/s 746 mmHg 56%
    19:00 +15°C° 0 mm 1 m/s 746 mmHg 60%
    20:00 +15°C° 0 mm 1 m/s 746 mmHg 63%
    21:00 +14°C° 0 mm 1 m/s 746 mmHg 65%
    22:00 +13°C° 0 mm 1 m/s 746 mmHg 67%
    23:00 +13°C° 0 mm 1 m/s 746 mmHg 69%
    Mostrar mais